When you browse on this site, cookies collect data to enhance your experience and personalize the content and advertising you see.
Visit our Privacy Policy to learn more. By continuing to use the site, you agree to this use of cookies and data.

Previsão horária em Panyuki

Hoje, 11 Agosto, Terça-feira

Tempo Temperatura Precipitação Vento Pressão Humidade
00:00 +13°C° 0 mm 2 m/s 742 mmHg 94%
01:00 +12°C° 0 mm 2 m/s 743 mmHg 95%
02:00 +10°C° 0 mm 2 m/s 743 mmHg 96%
03:00 +10°C° 0 mm 2 m/s 743 mmHg 97%
04:00 +10°C° 0 mm 2 m/s 743 mmHg 97%
05:00 +10°C° 0 mm 2 m/s 743 mmHg 97%
06:00 +11°C° 0 mm 3 m/s 743 mmHg 93%
07:00 +12°C° 0 mm 3 m/s 743 mmHg 89%
08:00 +13°C° 0 mm 4 m/s 743 mmHg 85%
09:00 +13°C° 0 mm 4 m/s 743 mmHg 81%
10:00 +14°C° 0 mm 4 m/s 743 mmHg 76%
11:00 +14°C° 0 mm 4 m/s 743 mmHg 72%
12:00 +14°C° 0.1 mm 4 m/s 743 mmHg 69%
13:00 +15°C° 0.1 mm 4 m/s 743 mmHg 67%
14:00 +15°C° 0.1 mm 4 m/s 743 mmHg 64%
15:00 +15°C° 0.1 mm 4 m/s 743 mmHg 67%
16:00 +14°C° 0.1 mm 4 m/s 743 mmHg 69%
17:00 +14°C° 0.1 mm 4 m/s 743 mmHg 72%
18:00 +13°C° 0 mm 4 m/s 743 mmHg 75%
19:00 +13°C° 0 mm 4 m/s 743 mmHg 79%
20:00 +12°C° 0 mm 4 m/s 743 mmHg 82%
21:00 +12°C° 0 mm 4 m/s 743 mmHg 83%
22:00 +12°C° 0 mm 4 m/s 743 mmHg 84%
23:00 +12°C° 0 mm 4 m/s 744 mmHg 85%

Amanhã, 12 Agosto, Quarta-feira

Tempo Temperatura Precipitação Vento Pressão Humidade
00:00 +12°C° 0 mm 4 m/s 743 mmHg 85%
01:00 +12°C° 0 mm 4 m/s 743 mmHg 86%
02:00 +12°C° 0 mm 3 m/s 743 mmHg 86%
03:00 +11°C° 0 mm 3 m/s 744 mmHg 87%
04:00 +11°C° 0 mm 3 m/s 744 mmHg 89%
05:00 +10°C° 0 mm 3 m/s 744 mmHg 90%
06:00 +11°C° 0 mm 4 m/s 744 mmHg 84%
07:00 +12°C° 0 mm 4 m/s 744 mmHg 78%
08:00 +13°C° 0 mm 4 m/s 744 mmHg 72%
09:00 +15°C° 0 mm 4 m/s 744 mmHg 67%
10:00 +17°C° 0 mm 4 m/s 744 mmHg 63%
11:00 +18°C° 0 mm 4 m/s 745 mmHg 59%
12:00 +18°C° 0.1 mm 4 m/s 745 mmHg 60%
13:00 +18°C° 0.1 mm 4 m/s 745 mmHg 61%
14:00 +18°C° 0.1 mm 4 m/s 744 mmHg 62%
15:00 +17°C° 0.1 mm 4 m/s 744 mmHg 63%
16:00 +17°C° 0.1 mm 4 m/s 745 mmHg 64%
17:00 +17°C° 0.1 mm 3 m/s 745 mmHg 64%
18:00 +14°C° 0 mm 3 m/s 745 mmHg 70%
19:00 +12°C° 0 mm 3 m/s 745 mmHg 76%
20:00 +12°C° 0 mm 2 m/s 745 mmHg 82%
21:00 +10°C° 0 mm 2 m/s 745 mmHg 83%
22:00 +10°C° 0 mm 2 m/s 745 mmHg 83%
23:00 +9°C° 0 mm 2 m/s 745 mmHg 84%

Depois de amanhã, 13 Agosto, Quinta-feira

Tempo Temperatura Precipitação Vento Pressão Humidade
00:00 +9°C° 0 mm 2 m/s 745 mmHg 84%
01:00 +9°C° 0 mm 2 m/s 745 mmHg 83%
02:00 +9°C° 0 mm 2 m/s 745 mmHg 83%
03:00 +9°C° 0 mm 2 m/s 745 mmHg 84%
04:00 +9°C° 0 mm 2 m/s 745 mmHg 85%
05:00 +9°C° 0 mm 2 m/s 744 mmHg 86%
06:00 +10°C° 0 mm 2 m/s 744 mmHg 82%
07:00 +12°C° 0 mm 2 m/s 744 mmHg 78%
08:00 +13°C° 0 mm 2 m/s 744 mmHg 74%
09:00 +14°C° 0.1 mm 2 m/s 744 mmHg 67%
10:00 +15°C° 0.1 mm 2 m/s 744 mmHg 61%
11:00 +15°C° 0.1 mm 2 m/s 744 mmHg 54%
12:00 +16°C° 0 mm 2 m/s 744 mmHg 52%
13:00 +17°C° 0 mm 3 m/s 744 mmHg 50%
14:00 +17°C° 0 mm 3 m/s 744 mmHg 48%
15:00 +17°C° 0 mm 2 m/s 744 mmHg 52%
16:00 +16°C° 0 mm 2 m/s 744 mmHg 56%
17:00 +16°C° 0 mm 2 m/s 744 mmHg 60%
18:00 +14°C° 0 mm 2 m/s 744 mmHg 66%
19:00 +13°C° 0 mm 2 m/s 744 mmHg 73%
20:00 +11°C° 0 mm 1 m/s 744 mmHg 79%
21:00 +11°C° 0 mm 1 m/s 744 mmHg 79%
22:00 +11°C° 0 mm 1 m/s 744 mmHg 80%
23:00 +11°C° 0 mm 1 m/s 744 mmHg 80%

14 Agosto, Sexta-feira

Tempo Temperatura Precipitação Vento Pressão Humidade
00:00 +10°C° 0 mm 1 m/s 744 mmHg 83%
01:00 +9°C° 0 mm 1 m/s 744 mmHg 86%
02:00 +9°C° 0 mm 1 m/s 744 mmHg 89%
03:00 +9°C° 0 mm 1 m/s 744 mmHg 90%
04:00 +8°C° 0 mm 1 m/s 744 mmHg 91%
05:00 +8°C° 0 mm 1 m/s 744 mmHg 92%
06:00 +11°C° 0 mm 1 m/s 745 mmHg 83%
07:00 +13°C° 0 mm 1 m/s 745 mmHg 73%
08:00 +16°C° 0 mm 1 m/s 745 mmHg 63%
09:00 +18°C° 0 mm 1 m/s 745 mmHg 57%
10:00 +20°C° 0 mm 1 m/s 744 mmHg 51%
11:00 +22°C° 0 mm 1 m/s 744 mmHg 46%
12:00 +22°C° 0 mm 1 m/s 744 mmHg 45%
13:00 +22°C° 0 mm 1 m/s 744 mmHg 44%
14:00 +23°C° 0 mm 1 m/s 743 mmHg 43%
15:00 +22°C° 0 mm 1 m/s 743 mmHg 47%
16:00 +21°C° 0 mm 1 m/s 743 mmHg 52%
17:00 +19°C° 0 mm 0 m/s 743 mmHg 57%
18:00 +19°C° 0 mm 1 m/s 743 mmHg 62%
19:00 +16°C° 0 mm 1 m/s 743 mmHg 68%
20:00 +14°C° 0 mm 1 m/s 742 mmHg 73%
21:00 +14°C° 0 mm 1 m/s 742 mmHg 77%
22:00 +13°C° 0 mm 1 m/s 742 mmHg 82%
23:00 +13°C° 0 mm 1 m/s 742 mmHg 86%

15 Agosto, Sábado

Tempo Temperatura Precipitação Vento Pressão Humidade
00:00 +13°C° 0 mm 1 m/s 742 mmHg 89%
01:00 +13°C° 0 mm 1 m/s 742 mmHg 93%
02:00 +12°C° 0 mm 1 m/s 742 mmHg 96%
03:00 +13°C° 0 mm 1 m/s 742 mmHg 96%
04:00 +13°C° 0 mm 1 m/s 742 mmHg 96%
05:00 +13°C° 0 mm 2 m/s 741 mmHg 96%
06:00 +13°C° 0.2 mm 1 m/s 741 mmHg 96%
07:00 +14°C° 0.2 mm 1 m/s 741 mmHg 96%
08:00 +14°C° 0.2 mm 1 m/s 741 mmHg 96%
09:00 +15°C° 0.2 mm 1 m/s 741 mmHg 96%
10:00 +15°C° 0.2 mm 1 m/s 741 mmHg 96%
11:00 +15°C° 0.2 mm 1 m/s 741 mmHg 96%
12:00 +16°C° 0.5 mm 1 m/s 741 mmHg 96%
13:00 +16°C° 0.5 mm 1 m/s 741 mmHg 95%
14:00 +16°C° 0.5 mm 1 m/s 741 mmHg 95%
15:00 +18°C° 0.8 mm 1 m/s 741 mmHg 94%
16:00 +18°C° 0.8 mm 1 m/s 741 mmHg 94%
17:00 +18°C° 0.8 mm 1 m/s 741 mmHg 93%
18:00 +16°C° 0.8 mm 2 m/s 741 mmHg 94%
19:00 +16°C° 0.8 mm 2 m/s 741 mmHg 96%
20:00 +14°C° 0.8 mm 3 m/s 741 mmHg 97%
21:00 +14°C° 0.1 mm 3 m/s 741 mmHg 97%
22:00 +13°C° 0.1 mm 3 m/s 741 mmHg 97%
23:00 +13°C° 0.1 mm 3 m/s 742 mmHg 97%

16 Agosto, Domingo

Tempo Temperatura Precipitação Vento Pressão Humidade
00:00 +13°C° 0 mm 3 m/s 742 mmHg 97%
01:00 +13°C° 0 mm 2 m/s 742 mmHg 97%
02:00 +12°C° 0 mm 2 m/s 743 mmHg 96%
03:00 +12°C° 0 mm 2 m/s 743 mmHg 97%
04:00 +10°C° 0 mm 2 m/s 743 mmHg 97%
05:00 +10°C° 0 mm 2 m/s 743 mmHg 98%
06:00 +12°C° 0 mm 2 m/s 744 mmHg 94%
07:00 +12°C° 0 mm 3 m/s 744 mmHg 91%
08:00 +14°C° 0 mm 3 m/s 744 mmHg 88%
09:00 +16°C° 0 mm 3 m/s 745 mmHg 78%
10:00 +18°C° 0 mm 3 m/s 745 mmHg 67%
11:00 +19°C° 0 mm 3 m/s 745 mmHg 57%
12:00 +20°C° 0 mm 3 m/s 745 mmHg 54%
13:00 +20°C° 0 mm 3 m/s 745 mmHg 51%
14:00 +21°C° 0 mm 3 m/s 745 mmHg 48%
15:00 +20°C° 0 mm 2 m/s 745 mmHg 51%
16:00 +20°C° 0 mm 2 m/s 745 mmHg 54%
17:00 +20°C° 0 mm 2 m/s 745 mmHg 57%
18:00 +18°C° 0 mm 2 m/s 746 mmHg 66%
19:00 +16°C° 0 mm 2 m/s 746 mmHg 74%
20:00 +14°C° 0 mm 2 m/s 746 mmHg 83%
21:00 +13°C° 0 mm 1 m/s 746 mmHg 85%
22:00 +12°C° 0 mm 1 m/s 746 mmHg 86%
23:00 +12°C° 0 mm 1 m/s 747 mmHg 88%
Mostrar mais